map of BOO home
BOO - Airport
Location
City:  Bodų, Norway
ICAO:ENBO
IATA:BOO

Details
Type:Airport (Aerodrome, Airfield)
Use:Public/Civil, Military, International (customs port of entry)
Latitude:67°16'09"N (67.269167)
Longitude:14°21'55"E (14.365278)
Datum:WGS 1984
Elevation:42 ft (13 m)
Variation:5.71°E (WMM2015 magnetic declination)
0.21° annual change
Runways:1
Longest:11136 × 148 ft (3394 × 45 m), paved

Time
Time Zone:UTC+1 (DST+2)
Local Time:

Weather
METAR:ENBO 121720Z 09011KT 9999 FEW030 M01/M06 Q0992 NOSIG
TAF:ENBO 121100Z 1212/1312 09008KT 9999 FEW040

Related Locations
Nearby:
Farthest:NZTB: 11591 mi / 18654 km
Terra Nova Bay [Mario Zucchelli Station], AQ

Find:

   beyond  
but within

Other Information
Maps:
NOTAMs:
Links:
Sources:

  
flag of Norway   

Airport Diagram

Airport diagram for BOO

Larger airport diagram (OBSOLETE) from NGA

Sectional Chart

Flight Planning
at skyvector.com

Satellite Image

Google Maps Satellite view

 

Copyright © 2004-2017 Karl L. Swartz. All rights reserved.
The Great Circle Mapper name and logo are trademarks of the Great Circle Mapper.
All other trademarks mentioned herein belong to their respective owners.
Please see credits for attibutions and further copyright information.

  Follow gcmap on Facebook Follow gcmap on Twitter Follow gcmap on Google+ GCmap on LinkedIn

hCard Microformat

Geo Microformat